Weather History for Gwinn, MI

Change the Weather History Date:

Tuesday, September 3, 2013

  Actual Average (KESC) Record (KESC)
Temperature  
Mean Temperature 60 °F -  
Max Temperature 73 °F 69 °F 85 °F (1976)
Min Temperature 46 °F 54 °F 39 °F (1974)
Degree Days  
Heating Degree Days 6    
Growing Degree Days 10 (Base 50)    
Moisture  
Dew Point 49 °F    
Average Humidity 78    
Maximum Humidity 96    
Minimum Humidity 41    
Precipitation  
Precipitation 0.00 in - - ()
Sea Level Pressure  
Sea Level Pressure 29.97 in    
Wind  
Wind Speed 7 mph (West)    
Max Wind Speed 17 mph    
Max Gust Speed -    
Visibility 10 miles    
Events      
Averages and records for this station are not official NWS values.
T = Trace of Precipitation, MM = Missing Value Source: NWS Daily Summary

Daily Weather History Graph

Daily Weather History Graph

Search for Another Location

Airport:

Trip Planner

Search our weather history database for the weather conditions in past years. The results will help you decide how hot, cold, wet, or windy it might be!

Date:

Astronomy

Sep. 03, 2013 Rise Set
Actual Time 7:12 AM EDT 8:24 PM EDT
Civil Twilight 6:41 AM EDT 8:54 PM EDT
Nautical Twilight 6:04 AM EDT 9:31 PM EDT
Astronomical Twilight 5:24 AM EDT 10:11 PM EDT
Moon 5:23 AM EDT (9/3) 7:12 PM EDT (9/3)
Length of Visible Light 14h 13m
Length of Day
13h 11m
Waning Crescent, 3% of the Moon is Illuminated
Sep 3
Waning Crescent
Sep 5
New
Sep 12
First Quarter
Sep 19
Full
Sep 26
Last Quarter

Hourly Weather History & Observations

Time (EDT) Temp. Dew Point Humidity Pressure Visibility Wind Dir Wind Speed Gust Speed Precip Events Conditions
12:17 AM 49.1 °F 46.4 °F 90% 29.99 in 10.0 mi WNW 9.2 mph - N/A   Clear
12:37 AM 49.3 °F 46.6 °F 90% 29.99 in 10.0 mi WNW 5.8 mph - N/A   Clear
12:57 AM 49.1 °F 46.6 °F 91% 29.99 in 10.0 mi NW 6.9 mph - N/A   Clear
1:17 AM 49.3 °F 46.8 °F 91% 29.99 in 10.0 mi WNW 4.6 mph - N/A   Clear
1:37 AM 48.6 °F 46.4 °F 92% 29.99 in 10.0 mi NW 6.9 mph - N/A   Clear
1:57 AM 48.4 °F 46.4 °F 93% 29.99 in 10.0 mi WNW 6.9 mph - N/A   Clear
2:16 AM 48.0 °F 46.2 °F 93% 29.99 in 10.0 mi WNW 5.8 mph - N/A   Clear
2:37 AM 47.3 °F 45.7 °F 94% 29.99 in 10.0 mi NW 4.6 mph - N/A   Clear
2:56 AM 47.1 °F 45.5 °F 94% 29.99 in 10.0 mi WNW 3.5 mph - N/A   Clear
3:17 AM 47.3 °F 45.9 °F 95% 29.99 in 10.0 mi WNW 6.9 mph - N/A   Clear
3:36 AM 47.5 °F 46.0 °F 95% 29.99 in 10.0 mi WNW 6.9 mph - N/A   Clear
3:57 AM 47.3 °F 45.9 °F 95% 29.99 in 10.0 mi WNW 5.8 mph - N/A   Clear
4:17 AM 47.3 °F 45.7 °F 94% 29.99 in 10.0 mi Calm Calm - N/A   Clear
4:36 AM 46.9 °F 45.7 °F 95% 29.99 in 10.0 mi WNW 3.5 mph - N/A   Clear
4:57 AM 47.5 °F 46.4 °F 96% 29.99 in 10.0 mi WNW 4.6 mph - N/A   Clear
5:16 AM 47.7 °F 46.4 °F 95% 29.98 in 10.0 mi Calm Calm - N/A   Clear
5:37 AM 47.7 °F 46.4 °F 95% 29.99 in 10.0 mi WNW 4.6 mph - N/A   Clear
5:56 AM 47.7 °F 46.4 °F 95% 29.98 in 10.0 mi WNW 6.9 mph - N/A   Clear
7:50 AM 48.2 °F 46.4 °F 93% 30.01 in 10.0 mi WNW 6.9 mph - N/A   Clear
7:55 AM 48.2 °F 46.4 °F 93% 30.00 in 10.0 mi WNW 6.9 mph - N/A   Clear
8:55 AM 53.6 °F 51.8 °F 94% 30.01 in 10.0 mi WNW 6.9 mph - N/A   Clear
9:50 AM 59.0 °F 51.8 °F 77% 30.01 in 10.0 mi WNW 6.9 mph - N/A   Clear
11:55 AM 66.2 °F 51.8 °F 60% 30.00 in 10.0 mi West 9.2 mph - N/A   Clear
12:55 PM 68.0 °F 51.8 °F 56% 29.99 in 10.0 mi WSW 10.4 mph - N/A   Clear
1:50 PM 69.8 °F 50.0 °F 49% 29.97 in 10.0 mi West 3.5 mph - N/A   Scattered Clouds
2:50 PM 71.6 °F 51.8 °F 50% 29.97 in 10.0 mi West 10.4 mph - N/A   Clear
3:50 PM 73.4 °F 50.0 °F 44% 29.95 in 10.0 mi West 9.2 mph - N/A   Clear
4:50 PM 73.4 °F 48.2 °F 41% 29.93 in 10.0 mi WSW 10.4 mph - N/A   Clear
5:50 PM 73.4 °F 48.2 °F 41% 29.92 in 10.0 mi West 11.5 mph - N/A   Clear
6:50 PM 73.4 °F 50.0 °F 44% 29.91 in 10.0 mi WSW 11.5 mph - N/A   Clear
7:50 PM 69.8 °F 50.0 °F 49% 29.91 in 10.0 mi WSW 6.9 mph - N/A   Clear
8:50 PM 64.4 °F 51.8 °F 64% 29.91 in 10.0 mi SW 6.9 mph - N/A   Clear
9:50 PM 62.6 °F 51.8 °F 68% 29.92 in 10.0 mi SW 17.3 mph - N/A   Clear
10:17 PM 62.4 °F 51.3 °F 67% 29.92 in 10.0 mi SW 8.1 mph - N/A   Clear
10:37 PM 62.1 °F 51.3 °F 68% 29.92 in 10.0 mi SW 4.6 mph - N/A   Clear
10:57 PM 61.2 °F 51.3 °F 70% 29.91 in 10.0 mi SW 5.8 mph - N/A   Clear
11:17 PM 61.0 °F 51.4 °F 71% 29.91 in 10.0 mi WSW 8.1 mph - N/A   Clear
11:37 PM 60.8 °F 51.8 °F 72% 29.91 in 10.0 mi West 6.9 mph - N/A   Clear
11:56 PM 60.8 °F 52.0 °F 73% 29.91 in 10.0 mi West 8.1 mph - N/A   Clear